Regional Weather Roundup
Issued by NWS

Home | Current Version | Previous Version | Text Only | Print | Product List | Glossary On
Versions: 1 2 3 4 5 6 7 8 9 10 11 12 13 14 15 16 17 18 19 20 21 22 23 24 25 26 27 28 29 30 31 32 33 34 35 36 37 38 39 40 41 42 43 44 45 46 47 48 49 50
000
ASUS42 KFFC 290910
RWRGA
WEATHER ROUNDUP FOR GEORGIA
NATIONAL WEATHER SERVICE PEACHTREE CITY GA
500 AM EDT SAT APR 29 2017

NOTE: "FAIR" INDICATES FEW OR NO CLOUDS BELOW 12,000 FEET WITH NO
SIGNIFICANT WEATHER AND/OR OBSTRUCTIONS TO VISIBILITY.

* = USE WITH CAUTION. THE STATIONS MARKED WITH AN ASTERISK MAY NOT
REPORT WEATHER SUCH AS PRECIPITATION, FOG, OR THUNDER AND ARE NOT
QUALITY CONTROLLED BY NWS.

THE REMARK "TC" DENOTES TEMPERATURE READING IN DEGREES CELSIUS.

GAZ001>058-291000-
NORTH GEORGIA

CITY           SKY/WX    TMP DP  RH WIND       PRES   REMARKS
ATLANTA        PTCLDY    71  67  87 S7        30.05F
ATHENS         CLEAR     66  66 100 SE3       30.09R
CHAMBLEE       CLEAR     69  65  86 SE6       30.06R
PEACHTREE CITY PTCLDY    65  65 100 SE3       30.05F
ROME           CLEAR     68  64  87 CALM      30.02R
WEST ATLANTA   CLEAR     69  67  93 CALM      30.05S
GAINESVILLE    CLEAR     67  65  93 CALM      30.11R
CARTERSVILLE   CLEAR     64  63  96 CALM      30.05R


CITY           SKY/WX    TMP DP  RH WIND       PRES   REMARKS
DALTON*        CLEAR     68  66  94 CALM      30.06R
MARIETTA       CLEAR     71  66  82 CALM      30.06R
CANTON*        CLEAR     68  63  83 CALM      30.09R
$$

GAZ059>098-102>109-291000-
CENTRAL GEORGIA

CITY           SKY/WX    TMP DP  RH WIND       PRES   REMARKS
AUGUSTA-BUSH   PTCLDY    72  70  93 SE6       30.09S
AUGUSTA-DANIEL PTCLDY    73  68  84 SE5       30.11S
COLUMBUS       PTCLDY    72  67  84 CALM      30.04F
MACON          PTCLDY    68  65  90 SE3       30.07S
ROBINS AFB     PTCLDY    68  66  95 CALM      30.07S


CITY           SKY/WX    TMP DP  RH WIND       PRES   REMARKS
LAGRANGE*        N/A     65  65 100 S5        30.04F FOG
SYLVANIA*      CLOUDY   N/A N/A N/A CALM      30.13S
MILLEDGEVILLE* PTCLDY    68  68 100 CALM      30.07F FOG
$$

GAZ099>101-110>166-291000-
SOUTH GEORGIA

CITY           SKY/WX    TMP DP  RH WIND       PRES   REMARKS
SAVANNAH       PTCLDY    75  70  84 S12       30.13S
VALDOSTA       MOCLDY    72  68  87 SE3       30.08S
ALMA           CLEAR     72  70  93 SE6       30.10R
ST SIMONS      CLOUDY    76  72  87 S9        30.12S
FT STEWART     MOCLDY    74  70  87 SE6       30.10S
ALBANY         PTCLDY    70  66  87 CALM      30.08S
HUNTER AFB     PTCLDY    76  76 100 S8        30.11S
MOODY AFB      PTCLDY    72  67  85 SE6       30.07F
BRUNSWICK      CLOUDY    77  73  88 S8        30.13S


CITY           SKY/WX    TMP DP  RH WIND       PRES   REMARKS
BAINBRIDGE*    PTCLDY    72  68  88 SE5       30.06S
MOULTRIE*      PTCLDY    72  64  78 SE5       30.08S
VIDALIA*       CLOUDY    72  70  94 SE5       30.11S
WAYCROSS*      MOCLDY    75  75 100 S8        30.11R
DOUGLAS*       PTCLDY    72  68  88 SE6       30.11S
$$



USA.gov is the U.S. government's official web portal to all federal, state and local government web resources and services.